一网星座-0563星 (ONEWEB-0563)

导读

ONEWEB-0563是英国OneWeb星座组网中的一颗低轨宽带卫星,于2023年3月9日由SpaceX猎鹰9号火箭发射升空,本次任务共成功部署40颗OneWeb卫星,使OneWeb在轨卫星数量达到582颗,距完成第一代600余颗低轨星座建设仅差一次发射。该卫星运行于低地球轨道,配备Ku波段转发器,为OneWeb提供全球范围互联网接入服务,后续也参与了全球首次低轨卫星5G Advanced非地面网络技术验证,推动星地一体化通信发展。

Basic Information
目录编号:
55800
目录名称:
ONEWEB-0563
国际标识:
2023-029E
轨道中心:
EARTH
卫星名称:
一网星座-0563星
卫星全名:
一网星座-0563星 (ONEWEB-0563)
卫星状态:
在轨 (已飞行1283 天)
发射日期:
2023-03-09 UTC
国别 :
英国 (GB)
星等 :
--
This satellite is enrolled in the Space Conjunction Data Service (SCDS) and the current flight risk assessment level is: No High Risk
Orbit Information
数据来源 国际轨道数据 AOE轨道数据
星历时间 2026-09-11T20:06:58+0800
16小时前
查看轨道信息
2026-09-05T23:00:00+0800
6天前
查看轨道信息
半长轴 7559.905km 7559.904km
偏心率 0.0002103 0.0001988
轨道倾角 87.913° 87.915°
近地点辐角 83.672° 99.722°
升交点赤经 257.254° 258.427°
平近点角 276.465° 39.084°
近地点 1180.178km 1180.264km
远地点 1183.358km 1183.27km
周期 109.027分钟 109.027分钟
每日圈数 13.207733 13.207737
Detailed Information
平衡模式:
三轴稳定
覆盖范围:
全球
运营商:
一网卫星公司
运营商所在国:
英国
制造商(研发单位):
一网卫星公司
制造商所在国:
英国
使用方式:
暂无
Satellite Introduction
OneWeb卫星网络由648颗重约125公斤的微型卫星组成,运行在1200公里的轨道上。 每颗卫星都能够提供至少每秒8千兆位的吞吐量,以使用其高吞吐量的Ku频段有效载荷为家庭和移动平台提供互联网接入。该卫星仍在工作。
2D Orbit Map
3D Orbit Map
Orbit Altitude Analysis Chart
Orbit Inclination Analysis Chart
Orbit Comprehensive Analysis Chart
View Comprehensive Chart
Miss Distance Evolution Trend with All Objects
Collision Probability Evolution Trend with All Objects